Location: Buchberg
(46.9333°N, 15.8500°E)
Time: 18:45:43
(UTC+00:00)

Cosmos 220 Rocket - Pass Details

Date: 14 July 2020
Orbit: 575 x 616 km, 74.0° (Epoch: 05 August)

Event Time Altitude Azimuth Distance (km) Brightness Sun altitude
Rises 00:54:49 0° 333° (NNW) 2,825 8.0 -16.9°
Reaches altitude 10° 00:57:06 10° 328° (NNW) 1,913 7.0 -16.7°
Maximum altitude 01:01:13 50° 254° (WSW) 744 4.2 -16.4°
Enters shadow 01:02:52 31° 196° (SSW) 1,023 4.6 -16.3°
